Location: Goudex
(43.3760°N, 0.9543°E)
Time: 10:03:06
(UTC+00:00)

Cosmos 2333 Rocket - Pass Details

Date: 20 November 2019
Orbit: 837 x 865 km, 70.8° (Epoch: 14 December)

Event Time Altitude Azimuth Distance (km) Brightness Sun altitude
Exits shadow 04:56:15 - 346° (NNW) 3,070 4.9 -21.4°
Reaches altitude 10° 04:58:00 10° 355° (N) 2,515 4.5 -21.1°
Maximum altitude 05:02:49 27° 52° (NE) 1,623 4.1 -20.3°
Drops below altitude 10° 05:07:37 10° 108° (ESE) 2,502 5.9 -19.4°
Sets 05:10:28 0° 121° (ESE) 3,433 6.6 -18.9°
